SCP
0 0 0 0 0 0 0 0 0 0 0 0 0 0 0 0 0 0 0 0 0 0
0 0 0 0 0 0 0 0 0 0 0 0 0 0 0 0 0 0 0 0 0 0
0 0 0 0 0 0 0 0 0 0 0 0 0 0 0 0 0 0 0 0 0 0
0 0 0 0 0 0 0 0 0 0 0 0 0 0 0 0 0 0 0 0 0 0
0 0 0 0 0 0 0 0 0 0 0 0 0 0 0 0 0 0 0 0 0 0
0 0 0 0 0 0 0 0 0 0 0 0 0 0 0 0 0 0 0 0 0 0
0 0 0 0 0 0 0 0 0 0 0 0 0 0 0 0 0 0 0 0 0 0
0 0 0 0 0 0 0 0 0 0 0 0 0 0 0 0 0 0 0 0 0 0
0 0 0 0 0 0 0 0 0 0 0 0 0 0 0 0 0 0 0 0 0 0
0 0 0 0 0 0 0 0 0 0 0 0 0 0 0 0 0 0 0 0 0 0
0 0 0 0 0 0 0 0 0 0 0 0 0 0 0 0 0 0 0 0 0 0
0 0 0 0 0 0 0 0 0 0 0 0 0 0 0 0 0 0 0 0 0 0
0 0 0 0 0 0 0 0 0 0 0 0 0 0 0 0 0 0 0 0 0 0
0 0 0 0 0 0 0 0 0 0 0 0 0 0 0 0 0 0 0 0 0 0
Wind_Speed_500mb
83 82 84 81 76 74 69 61 51 49 45 44 45 46 48 50 53 54 55 52 50 48
83 84 82 74 70 70 64 57 52 47 46 47 48 48 49 51 50 46 40 36 39 43
83 81 77 76 73 67 60 56 52 50 48 47 49 49 50 49 41 38 38 39 42 41
82 79 75 73 72 68 61 56 55 52 52 50 49 49 48 44 42 45 41 41 45 49
73 72 69 65 63 65 62 59 56 56 55 54 51 45 48 47 45 44 41 41 39 32
67 66 62 60 60 61 61 60 59 58 55 49 46 47 48 45 46 46 42 40 35 36
63 61 58 55 57 57 57 56 54 49 47 44 45 46 47 48 45 43 45 38 37 35
60 58 56 53 52 50 47 45 44 45 46 45 43 40 43 43 43 44 38 35 40 33
56 54 52 50 48 45 43 43 43 44 43 40 38 40 38 38 39 40 36 34 22 19
50 50 48 46 44 42 39 37 35 34 33 31 32 34 38 39 36 33 28 25 20 16
51 50 48 46 43 40 38 35 33 33 32 30 30 32 31 29 26 22 22 23 25 24
55 53 50 46 43 40 38 37 35 32 31 30 29 32 32 30 31 31 28 26 21 13
52 48 46 45 44 42 40 39 39 40 38 36 32 36 36 33 33 31 26 21 16 16
53 51 49 48 46 46 46 46 44 43 42 36 36 38 37 37 31 24 21 18 19 18
Wind_Direction_500mb
242 242 244 244 247 249 250 251 252 249 250 252 254 254 255 257 259 261 263 267 272 276
241 238 241 243 245 248 249 249 247 247 247 248 250 253 253 255 259 262 264 269 274 276
241 239 240 241 242 244 246 246 245 245 245 245 247 248 250 255 256 256 262 266 274 275
237 237 239 241 242 242 243 244 245 245 244 244 244 245 248 249 251 254 261 265 266 268
235 235 239 242 241 238 238 242 242 242 243 243 244 241 245 248 244 254 252 257 265 264
228 232 234 234 232 232 234 237 239 240 242 242 238 241 241 243 253 247 246 249 255 254
223 226 229 230 229 229 230 232 235 238 239 231 234 236 241 240 248 242 252 252 251 261
222 223 221 223 225 226 226 229 233 234 233 232 230 230 237 238 237 243 237 244 262 270
213 214 215 215 216 218 221 224 226 228 229 229 227 227 220 225 224 233 235 251 239 241
204 203 203 206 208 210 211 212 213 214 215 214 214 214 216 226 225 226 220 218 224 216
197 197 197 198 198 197 197 198 200 202 204 205 207 207 205 196 200 191 167 163 176 186
191 191 192 191 190 193 196 197 196 192 190 186 186 169 169 172 175 172 168 169 173 192
191 194 194 194 193 193 192 191 187 184 178 181 180 168 170 168 168 166 165 172 197 206
195 196 198 196 194 192 188 186 184 182 179 176 170 170 174 179 174 182 185 184 197 204
Wind_Speed_850mb
83 82 84 81 76 74 69 61 51 49 45 44 45 46 48 50 53 54 55 52 50 48
83 84 82 74 70 70 64 57 52 47 46 47 48 48 49 51 50 46 40 36 39 43
83 81 77 76 73 67 60 56 52 50 48 47 49 49 50 49 41 38 38 39 42 41
82 79 75 73 72 68 61 56 55 52 52 50 49 49 48 44 42 45 41 41 45 49
73 72 69 65 63 65 62 59 56 56 55 54 51 45 48 47 45 44 41 41 39 32
67 66 62 60 60 61 61 60 59 58 55 49 46 47 48 45 46 46 42 40 35 36
63 61 58 55 57 57 57 56 54 49 47 44 45 46 47 48 45 43 45 38 37 35
60 58 56 53 52 50 47 45 44 45 46 45 43 40 43 43 43 44 38 35 40 33
56 54 52 50 48 45 43 43 43 44 43 40 38 40 38 38 39 40 36 34 22 19
50 50 48 46 44 42 39 37 35 34 33 31 32 34 38 39 36 33 28 25 20 16
51 50 48 46 43 40 38 35 33 33 32 30 30 32 31 29 26 22 22 23 25 24
55 53 50 46 43 40 38 37 35 32 31 30 29 32 32 30 31 31 28 26 21 13
52 48 46 45 44 42 40 39 39 40 38 36 32 36 36 33 33 31 26 21 16 16
53 51 49 48 46 46 46 46 44 43 42 36 36 38 37 37 31 24 21 18 19 18
Wind_Direction_850mb
242 242 244 244 247 249 250 251 252 249 250 252 254 254 255 257 259 261 263 267 272 276
241 238 241 243 245 248 249 249 247 247 247 248 250 253 253 255 259 262 264 269 274 276
241 239 240 241 242 244 246 246 245 245 245 245 247 248 250 255 256 256 262 266 274 275
237 237 239 241 242 242 243 244 245 245 244 244 244 245 248 249 251 254 261 265 266 268
235 235 239 242 241 238 238 242 242 242 243 243 244 241 245 248 244 254 252 257 265 264
228 232 234 234 232 232 234 237 239 240 242 242 238 241 241 243 253 247 246 249 255 254
223 226 229 230 229 229 230 232 235 238 239 231 234 236 241 240 248 242 252 252 251 261
222 223 221 223 225 226 226 229 233 234 233 232 230 230 237 238 237 243 237 244 262 270
213 214 215 215 216 218 221 224 226 228 229 229 227 227 220 225 224 233 235 251 239 241
204 203 203 206 208 210 211 212 213 214 215 214 214 214 216 226 225 226 220 218 224 216
197 197 197 198 198 197 197 198 200 202 204 205 207 207 205 196 200 191 167 163 176 186
191 191 192 191 190 193 196 197 196 192 190 186 186 169 169 172 175 172 168 169 173 192
191 194 194 194 193 193 192 191 187 184 178 181 180 168 170 168 168 166 165 172 197 206
195 196 198 196 194 192 188 186 184 182 179 176 170 170 174 179 174 182 185 184 197 204